Location: S�tio Afonso Gruber
(26.1760°S, 49.5250°W)
Time: 00:05:40
(UTC+00:00)

Intelsat 5-3 Rocket - Pass Details

Date: 02 October 2020
Orbit: 281 x 6111 km, 23.6° (Epoch: 22 October)

Event Time Altitude Azimuth Distance (km) Brightness Sun altitude
Rises 00:26:46 0° 307° (NW) 3,547 6.7 -41.0°
Enters shadow 00:28:30 - 312° (NW) 3,014 6.2 -41.3°
Exits shadow 01:00:49 - 99° (E) 8,512 8.0 -47.2°
Sets 01:05:48 0° 100° (E) 9,581 8.3 -48.1°
